Location: Heidgraben
(53.7081°N, 9.6576°E)
Time: 04:32:11
(UTC+00:00)

Cosmos 1892 - Pass Details

Date: 05 July 2020
Orbit: 505 x 523 km, 82.5° (Epoch: 06 August)

Event Time Altitude Azimuth Distance (km) Brightness Sun altitude
Exits shadow 21:07:10 10° 143° (SE) 1,698 4.6 -7.9°
Maximum altitude 21:10:11 24° 89° (E) 1,087 4.1 -8.2°
Drops below altitude 10° 21:13:18 10° 34° (NE) 1,745 5.7 -8.4°
Sets 21:15:42 0° 21° (NNE) 2,641 6.9 -8.6°
